Volver al catálogo

ATLAS 2A CENTAUR R/B

ActivoHEO
NORAD 26389·ROCKET BODY·🇺🇸 United States

Lanzado Jun 30, 2000 desde Cape Canaveral Space Force Station

Loading…

Próximos Pases (próximas 24 horas)

TLE

ActualizadoSource: Space-Track

Época: Sep 14, 2026, 10:35 UTC

1 26389U 00034B   26257.44097943  .00011473  00000-0  12260-2 0  9996
2 26389  26.8351 246.3480 4848171  37.4291 348.1092  5.90638620423196

Sigue ATLAS 2A CENTAUR R/B en tiempo real con AllMySat

Download on the App Store